User: anonymous   Login
Location: Fort Wayne
(41.1310°N, 85.1290°W)
Time: 09:20:47
(UTC-04:00)
Language:

Cosmos 1000 Rocket - Orbit

View from above orbital plane
View from above orbital plane
View from above satellite
View from above satellite

Ground track
Ground track

The orbit data is extracted from the following two-line orbital elements,

1 10777U 78034B   17086.95419297 -.00000043 +00000-0 -58331-4 0  9995
2 10777 082.9394 290.9955 0027301 066.7622 040.6816 13.77386387959203
Epoch (UTC): 27 March 2017 22:54:02
Eccentricity: 0.0027301
inclination: 82.9394°
perigee height: 953 km
apogee height: 993 km
right ascension of ascending node: 290.9955°
argument of perigee: 66.7622°
revolutions per day: 13.77386387
mean anomaly at epoch: 40.6816°
orbit number at epoch: 95920

The dashed part of the orbit path shows where the satellite is in the earth's shadow,  

DLR